Location: Augsburg
(48.3836°N, 10.8929°E)
Time: 02:29:59
(UTC+01:00)

ISS - Pass Details

Date: 04 December 2021
Orbit: 413 x 422 km, 51.6° (Epoch: 24 January)

Event Time Altitude Azimuth Distance (km) Brightness Sun altitude
Rises 19:27:30 0° 286° (WNW) 2,382 1.1 -29.7°
Reaches altitude 10° 19:30:02 10° 267° (W) 1,510 0.0 -30.1°
Enters shadow 19:30:56 14° 255° (WSW) 1,273 -0.6 -30.3°
